sat.trackr.live / text

‹ back to catalog

STARLINK-36432

NORAD 67342 · 2026-003J

PAYLOAD ACTIVE UNKNOWN

§ Identity

Operator
Country
US
Launch date
2026-01-09
Launch site
AFETR
Launch vehicle
Mass (kg)
RCS (m²)

Purposes: comms

External: N2YO · Heavens-Above · Gunter

§ Orbital elements

Epoch: 2026-05-25T00:48:02.238336Z

Period
94.27 min
Inclination
43.0001°
Eccentricity
0.0001441
Mean motion
15.27587407 rev/d
Perigee alt
482.0 km
Apogee alt
484.0 km
Semi-major
6,861.2 km
B*
8.1689e-4
RAAN
155.5725°
Arg perigee
274.7230°
Mean anomaly
85.3457°
Rev number
2,050

§ Raw data

STARLINK-364321 67342U 26003J   26145.03335924  .00022290  00000+0  81689-3 0  99992 67342  43.0001 155.5725 0001441 274.7230  85.3457 15.27587407 20502

JSON: /api/v1/satellites/67342 · /tle

For live sub-satellite position, see the globe view (requires WebGL).

§ Visibility from observer

Set your observer location to see the next 7 days of passes ≥ 10°. The values pass through the URL so the page stays shareable.

No JS? Fill the form by hand. The geolocation button needs JavaScript.